Weather History for Litchfield, MN

Change the Weather History Date:

Tuesday, March 5, 2013

  Actual Average Record
Temperature  
Mean Temperature 24 °F -  
Max Temperature 30 °F 34 °F 60 °F (1987)
Min Temperature 19 °F 16 °F -14 °F (1960)
Degree Days  
Heating Degree Days 40    
Moisture  
Dew Point 23 °F    
Average Humidity 92    
Maximum Humidity 100    
Minimum Humidity 69    
Precipitation  
Precipitation 0.00 in - - ()
Sea Level Pressure  
Sea Level Pressure 30.10 in    
Wind  
Wind Speed 8 mph (NNE)    
Max Wind Speed 14 mph    
Max Gust Speed -    
Visibility 6 miles    
Events Snow    
Averages and records for this station are not official NWS values.
T = Trace of Precipitation, MM = Missing Value Source: NWS Daily Summary

Daily Weather History Graph

Daily Weather History Graph

Search for Another Location

Airport:

Trip Planner

Search our weather history database for the weather conditions in past years. The results will help you decide how hot, cold, wet, or windy it might be!

Date:

Astronomy

Mar. 05, 2013 Rise Set
Actual Time 6:48 AM CST 6:11 PM CST
Civil Twilight 6:19 AM CST 6:40 PM CST
Nautical Twilight 5:45 AM CST 7:14 PM CST
Astronomical Twilight 5:10 AM CST 7:48 PM CST
Moon 2:13 AM CST (3/5) 11:39 AM CST (3/5)
Length of Visible Light 12h 21m
Length of Day
11h 22m
Last Quarter, 40% of the Moon is Illuminated
Mar 5
Last Quarter
Mar 11
New
Mar 19
First Quarter
Mar 27
Full
Apr 2
Last Quarter

Hourly Weather History & Observations

Time (CST) Temp. Windchill Dew Point Humidity Pressure Visibility Wind Dir Wind Speed Gust Speed Precip Events Conditions
12:13 AM 24.8 °F 15.3 °F 23.0 °F 93% 29.96 in 1.8 mi ESE 9.2 mph - N/A Snow Light Snow
12:32 AM 24.8 °F 15.3 °F 23.0 °F 93% 29.95 in 1.5 mi East 9.2 mph - N/A Snow Light Snow
12:53 AM 24.8 °F 15.3 °F 24.8 °F 100% 29.95 in 1.8 mi East 9.2 mph - N/A Snow Light Snow
1:13 AM 24.8 °F 16.1 °F 24.8 °F 100% 29.95 in 2.0 mi East 8.1 mph - N/A Snow Light Snow
1:32 AM 24.8 °F 16.1 °F 24.8 °F 100% 29.94 in 2.0 mi East 8.1 mph - N/A Snow Light Snow
1:53 AM 24.8 °F 16.1 °F 24.8 °F 100% 29.95 in 2.0 mi East 8.1 mph - N/A Snow Light Snow
2:13 AM 24.8 °F 16.1 °F 24.8 °F 100% 29.95 in 1.8 mi East 8.1 mph - N/A Snow Light Snow
2:32 AM 24.8 °F 16.1 °F 24.8 °F 100% 29.95 in 2.0 mi East 8.1 mph - N/A Snow Light Snow
2:53 AM 24.8 °F 16.9 °F 24.8 °F 100% 29.94 in 1.8 mi East 6.9 mph - N/A Snow Light Snow
3:13 AM 24.8 °F 16.9 °F 24.8 °F 100% 29.94 in 2.5 mi East 6.9 mph - N/A Snow Light Snow
3:32 AM 24.8 °F 16.1 °F 24.8 °F 100% 29.94 in 2.5 mi East 8.1 mph - N/A Snow Light Snow
3:53 AM 24.8 °F 16.9 °F 24.8 °F 100% 29.94 in 3.0 mi East 6.9 mph - N/A Snow Light Snow
4:13 AM 24.8 °F 16.9 °F 24.8 °F 100% 29.94 in 2.5 mi East 6.9 mph - N/A Snow Light Snow
4:33 AM 24.8 °F 15.3 °F 24.8 °F 100% 29.94 in 2.5 mi East 9.2 mph - N/A Snow Light Snow
4:53 AM 24.8 °F 16.9 °F 24.8 °F 100% 29.94 in 2.5 mi East 6.9 mph - N/A   Overcast
5:13 AM 24.8 °F 17.9 °F 24.8 °F 100% 29.95 in 3.0 mi ENE 5.8 mph - N/A   Overcast
5:33 AM 24.8 °F 19.1 °F 24.8 °F 100% 29.96 in 2.5 mi ENE 4.6 mph - N/A Snow Light Snow
5:53 AM 24.8 °F 19.1 °F 24.8 °F 100% 29.96 in 1.2 mi ENE 4.6 mph - N/A Snow Light Snow
6:13 AM 24.8 °F 19.1 °F 24.8 °F 100% 29.97 in 1.5 mi NE 4.6 mph - N/A Snow Light Snow
6:33 AM 24.8 °F 19.1 °F 24.8 °F 100% 29.97 in 1.8 mi NE 4.6 mph - N/A Snow Light Snow
7:12 AM 24.8 °F 17.9 °F 24.8 °F 100% 29.99 in 1.8 mi NE 5.8 mph - N/A Snow Light Snow
7:33 AM 24.8 °F 17.9 °F 24.8 °F 100% 30.00 in 2.0 mi NNE 5.8 mph - N/A Snow Light Snow
7:53 AM 24.8 °F 16.9 °F 24.8 °F 100% 30.00 in 2.0 mi NNE 6.9 mph - N/A   Overcast
8:12 AM 24.8 °F 16.9 °F 24.8 °F 100% 30.01 in 2.0 mi NNE 6.9 mph - N/A Snow Light Snow
8:33 AM 24.8 °F 16.9 °F 23.0 °F 93% 30.02 in 2.0 mi NNE 6.9 mph - N/A Snow Light Snow
8:53 AM 24.8 °F 15.3 °F 23.0 °F 93% 30.03 in 2.0 mi NNE 9.2 mph - N/A   Overcast
9:12 AM 24.8 °F 16.1 °F 24.8 °F 100% 30.03 in 3.0 mi NNE 8.1 mph - N/A   Overcast
9:33 AM 24.8 °F 14.6 °F 23.0 °F 93% 30.04 in 4.0 mi NNE 10.4 mph - N/A   Overcast
9:53 AM 24.8 °F 17.9 °F 23.0 °F 93% 30.05 in 4.0 mi NNE 5.8 mph - N/A   Overcast
10:13 AM 24.8 °F 15.3 °F 23.0 °F 93% 30.05 in 4.0 mi North 9.2 mph - N/A   Overcast
10:33 AM 26.6 °F 18.2 °F 24.8 °F 93% 30.06 in 4.0 mi North 8.1 mph - N/A Snow Light Snow
10:53 AM 26.6 °F 18.2 °F 24.8 °F 93% 30.07 in 3.0 mi North 8.1 mph - N/A Snow Light Snow
11:13 AM 26.6 °F 16.2 °F 24.8 °F 93% 30.07 in 4.0 mi North 11.5 mph - N/A Snow Light Snow
11:33 AM 26.6 °F 16.2 °F 24.8 °F 93% 30.08 in 4.0 mi NNE 11.5 mph - N/A Snow Light Snow
11:53 AM 26.6 °F 16.8 °F 24.8 °F 93% 30.08 in 3.0 mi North 10.4 mph - N/A Snow Light Snow
12:12 PM 26.6 °F 17.5 °F 24.8 °F 93% 30.09 in 5.0 mi North 9.2 mph - N/A   Overcast
12:33 PM 26.6 °F 17.5 °F 24.8 °F 93% 30.09 in 10.0 mi NNE 9.2 mph - N/A   Mostly Cloudy
12:53 PM 28.4 °F 19.1 °F 24.8 °F 86% 30.10 in 10.0 mi NNE 10.4 mph - N/A   Mostly Cloudy
1:12 PM 28.4 °F 19.7 °F 23.0 °F 80% 30.10 in 10.0 mi NNE 9.2 mph - N/A   Mostly Cloudy
1:33 PM 28.4 °F 19.7 °F 23.0 °F 80% 30.10 in 10.0 mi North 9.2 mph - N/A   Mostly Cloudy
1:53 PM 28.4 °F 19.7 °F 24.8 °F 86% 30.11 in 10.0 mi North 9.2 mph - N/A   Mostly Cloudy
2:12 PM 28.4 °F 19.7 °F 23.0 °F 80% 30.11 in 10.0 mi North 9.2 mph - N/A   Scattered Clouds
2:33 PM 30.2 °F 21.3 °F 21.2 °F 69% 30.12 in 10.0 mi North 10.4 mph - N/A   Mostly Cloudy
3:12 PM 28.4 °F 18.0 °F 21.2 °F 74% 30.14 in 10.0 mi NNW 12.7 mph - N/A   Mostly Cloudy
3:33 PM 28.4 °F 17.5 °F 24.8 °F 86% 30.15 in 7.0 mi NNW 13.8 mph - N/A Snow Light Snow
3:53 PM 28.4 °F 19.1 °F 26.6 °F 93% 30.16 in 2.5 mi NNW 10.4 mph - N/A Snow Light Snow
4:13 PM 28.4 °F 18.5 °F 24.8 °F 86% 30.16 in 4.0 mi NNW 11.5 mph - N/A Snow Light Snow
4:33 PM 28.4 °F 18.5 °F 24.8 °F 86% 30.17 in 3.0 mi North 11.5 mph - N/A Snow Light Snow
4:52 PM 28.4 °F 19.7 °F 24.8 °F 86% 30.18 in 2.0 mi North 9.2 mph - N/A Snow Light Snow
5:13 PM 28.4 °F 20.4 °F 24.8 °F 86% 30.19 in 7.0 mi North 8.1 mph - N/A Snow Light Snow
5:33 PM 26.6 °F 17.5 °F 23.0 °F 86% 30.20 in 10.0 mi North 9.2 mph - N/A   Scattered Clouds
5:52 PM 26.6 °F 18.2 °F 21.2 °F 80% 30.21 in 10.0 mi NNW 8.1 mph - N/A   Scattered Clouds
6:13 PM 24.8 °F 16.1 °F 21.2 °F 86% 30.22 in 10.0 mi North 8.1 mph - N/A   Mostly Cloudy
6:33 PM 24.8 °F 16.9 °F 21.2 °F 86% 30.23 in 10.0 mi North 6.9 mph - N/A   Scattered Clouds
6:52 PM 23.0 °F 17.0 °F 19.4 °F 86% 30.24 in 10.0 mi North 4.6 mph - N/A   Scattered Clouds
7:13 PM 21.2 °F 13.6 °F 17.6 °F 86% 30.24 in 10.0 mi North 5.8 mph - N/A   Clear
7:33 PM 21.2 °F 13.6 °F 19.4 °F 93% 30.25 in 10.0 mi NNW 5.8 mph - N/A   Scattered Clouds
7:52 PM 24.8 °F 19.1 °F 19.4 °F 80% 30.25 in 10.0 mi NW 4.6 mph - N/A   Overcast
8:13 PM 24.8 °F 17.9 °F 21.2 °F 86% 30.26 in 10.0 mi NW 5.8 mph - N/A Snow Light Snow
8:33 PM 24.8 °F 16.9 °F 21.2 °F 86% 30.26 in 10.0 mi NNW 6.9 mph - N/A   Overcast
8:52 PM 24.8 °F 16.1 °F 21.2 °F 86% 30.27 in 10.0 mi North 8.1 mph - N/A   Overcast
9:13 PM 21.2 °F 13.6 °F 19.4 °F 93% 30.28 in 10.0 mi NNW 5.8 mph - N/A Snow Light Snow
9:33 PM 23.0 °F 17.0 °F 19.4 °F 86% 30.28 in 10.0 mi NW 4.6 mph - N/A   Overcast
9:52 PM 23.0 °F 17.0 °F 19.4 °F 86% 30.28 in 10.0 mi WNW 4.6 mph - N/A   Overcast
10:13 PM 21.2 °F 12.6 °F 19.4 °F 93% 30.29 in 10.0 mi NW 6.9 mph - N/A   Overcast
10:33 PM 19.4 °F 11.5 °F 19.4 °F 100% 30.30 in 10.0 mi NW 5.8 mph - N/A   Overcast
10:53 PM 21.2 °F 13.6 °F 19.4 °F 93% 30.30 in 10.0 mi NW 5.8 mph - N/A   Overcast
11:13 PM 21.2 °F 14.9 °F 19.4 °F 93% 30.30 in 10.0 mi NW 4.6 mph - N/A   Overcast
11:33 PM 21.2 °F 13.6 °F 19.4 °F 93% 30.31 in 10.0 mi NNW 5.8 mph - N/A   Overcast
11:53 PM 21.2 °F 14.9 °F 19.4 °F 93% 30.31 in 10.0 mi NW 4.6 mph - N/A   Overcast